Meteo pe oră la Bucureşti

Astăzi, 17 Aprilie, Sâmbătă

Timp Temperatura Precipitaţii Vânt Presiune Umiditate
00:00 +5°C° 0 mm 2 m/s 757 mmHg 65%
01:00 +5°C° 0 mm 2 m/s 757 mmHg 66%
02:00 +4°C° 0 mm 2 m/s 757 mmHg 67%
03:00 +5°C° 0 mm 1 m/s 757 mmHg 67%
04:00 +5°C° 0 mm 1 m/s 757 mmHg 67%
05:00 +5°C° 0 mm 1 m/s 757 mmHg 67%
06:00 +6°C° 0 mm 1 m/s 757 mmHg 63%
07:00 +7°C° 0 mm 1 m/s 757 mmHg 59%
08:00 +7°C° 0 mm 0 m/s 757 mmHg 56%
09:00 +10°C° 0 mm 1 m/s 757 mmHg 51%
10:00 +12°C° 0 mm 1 m/s 757 mmHg 47%
11:00 +13°C° 0 mm 2 m/s 757 mmHg 42%
12:00 +14°C° 0 mm 2 m/s 756 mmHg 42%
13:00 +15°C° 0 mm 2 m/s 756 mmHg 43%
14:00 +16°C° 0 mm 3 m/s 755 mmHg 43%
15:00 +14°C° 0 mm 3 m/s 755 mmHg 48%
16:00 +14°C° 0 mm 3 m/s 755 mmHg 54%
17:00 +13°C° 0 mm 3 m/s 755 mmHg 59%
18:00 +12°C° 0.4 mm 3 m/s 755 mmHg 66%
19:00 +12°C° 0.4 mm 2 m/s 755 mmHg 73%
20:00 +10°C° 0.4 mm 2 m/s 755 mmHg 79%
21:00 +9°C° 0.3 mm 3 m/s 755 mmHg 79%
22:00 +9°C° 0.3 mm 3 m/s 755 mmHg 79%
23:00 +8°C° 0.3 mm 3 m/s 755 mmHg 80%

Mâine, 18 Aprilie, Duminică

Timp Temperatura Precipitaţii Vânt Presiune Umiditate
00:00 +8°C° 0 mm 3 m/s 755 mmHg 79%
01:00 +8°C° 0 mm 3 m/s 755 mmHg 79%
02:00 +8°C° 0 mm 3 m/s 755 mmHg 79%
03:00 +8°C° 0 mm 3 m/s 755 mmHg 79%
04:00 +8°C° 0 mm 3 m/s 754 mmHg 79%
05:00 +8°C° 0 mm 3 m/s 754 mmHg 78%
06:00 +7°C° 0 mm 4 m/s 754 mmHg 78%
07:00 +7°C° 0 mm 4 m/s 754 mmHg 77%
08:00 +7°C° 0 mm 5 m/s 754 mmHg 77%
09:00 +8°C° 0 mm 5 m/s 754 mmHg 73%
10:00 +8°C° 0 mm 5 m/s 754 mmHg 70%
11:00 +9°C° 0 mm 6 m/s 754 mmHg 66%
12:00 +9°C° 0 mm 5 m/s 754 mmHg 71%
13:00 +8°C° 0 mm 4 m/s 754 mmHg 76%
14:00 +8°C° 0 mm 4 m/s 754 mmHg 80%
15:00 +8°C° 0.1 mm 4 m/s 754 mmHg 82%
16:00 +8°C° 0.1 mm 4 m/s 754 mmHg 85%
17:00 +7°C° 0.1 mm 4 m/s 754 mmHg 87%
18:00 +8°C° 0 mm 3 m/s 754 mmHg 87%
19:00 +8°C° 0 mm 3 m/s 755 mmHg 86%
20:00 +8°C° 0 mm 2 m/s 755 mmHg 86%
21:00 +8°C° 0 mm 2 m/s 755 mmHg 86%
22:00 +9°C° 0 mm 1 m/s 755 mmHg 85%
23:00 +9°C° 0 mm 1 m/s 755 mmHg 85%

Poimâine, 19 Aprilie, Luni

Timp Temperatura Precipitaţii Vânt Presiune Umiditate
00:00 +9°C° 0 mm 1 m/s 755 mmHg 85%
01:00 +9°C° 0 mm 1 m/s 755 mmHg 85%
02:00 +8°C° 0 mm 2 m/s 754 mmHg 85%
03:00 +9°C° 0 mm 1 m/s 754 mmHg 85%
04:00 +8°C° 0 mm 1 m/s 754 mmHg 85%
05:00 +8°C° 0 mm 1 m/s 754 mmHg 85%
06:00 +9°C° 0 mm 1 m/s 754 mmHg 82%
07:00 +8°C° 0 mm 2 m/s 754 mmHg 79%
08:00 +9°C° 0 mm 2 m/s 754 mmHg 76%
09:00 +10°C° 0.2 mm 2 m/s 753 mmHg 75%
10:00 +10°C° 0.2 mm 2 m/s 753 mmHg 73%
11:00 +12°C° 0.2 mm 2 m/s 752 mmHg 71%
12:00 +10°C° 0.7 mm 2 m/s 752 mmHg 76%
13:00 +11°C° 0.7 mm 1 m/s 752 mmHg 80%
14:00 +11°C° 0.7 mm 1 m/s 752 mmHg 85%
15:00 +11°C° 1.5 mm 1 m/s 751 mmHg 87%
16:00 +10°C° 1.5 mm 1 m/s 751 mmHg 90%
17:00 +9°C° 1.5 mm 2 m/s 750 mmHg 92%
18:00 +9°C° 1.1 mm 2 m/s 750 mmHg 93%
19:00 +9°C° 1.1 mm 2 m/s 750 mmHg 93%
20:00 +9°C° 1.1 mm 3 m/s 749 mmHg 94%
21:00 +9°C° 0.8 mm 3 m/s 749 mmHg 93%
22:00 +9°C° 0.8 mm 3 m/s 749 mmHg 93%
23:00 +9°C° 0.8 mm 3 m/s 748 mmHg 92%

20 Aprilie, Marţi

Timp Temperatura Precipitaţii Vânt Presiune Umiditate
00:00 +9°C° 0.4 mm 3 m/s 748 mmHg 92%
01:00 +8°C° 0.4 mm 3 m/s 748 mmHg 92%
02:00 +8°C° 0.4 mm 3 m/s 748 mmHg 92%
03:00 +8°C° 0 mm 3 m/s 747 mmHg 92%
04:00 +7°C° 0 mm 4 m/s 747 mmHg 91%
05:00 +7°C° 0 mm 4 m/s 747 mmHg 91%
06:00 +8°C° 0 mm 5 m/s 747 mmHg 88%
07:00 +8°C° 0 mm 5 m/s 748 mmHg 84%
08:00 +9°C° 0 mm 5 m/s 748 mmHg 81%
09:00 +10°C° 0 mm 5 m/s 748 mmHg 74%
10:00 +13°C° 0 mm 5 m/s 748 mmHg 67%
11:00 +14°C° 0 mm 5 m/s 749 mmHg 60%
12:00 +14°C° 0.4 mm 5 m/s 749 mmHg 59%
13:00 +15°C° 0.4 mm 5 m/s 749 mmHg 58%
14:00 +15°C° 0.4 mm 5 m/s 749 mmHg 57%
15:00 +15°C° 0.2 mm 6 m/s 749 mmHg 58%
16:00 +14°C° 0.2 mm 6 m/s 749 mmHg 59%
17:00 +14°C° 0.2 mm 6 m/s 750 mmHg 60%
18:00 +13°C° 0 mm 6 m/s 750 mmHg 63%
19:00 +12°C° 0 mm 5 m/s 751 mmHg 66%
20:00 +10°C° 0 mm 5 m/s 751 mmHg 70%
21:00 +10°C° 0 mm 4 m/s 751 mmHg 73%
22:00 +9°C° 0 mm 3 m/s 752 mmHg 75%
23:00 +9°C° 0 mm 3 m/s 752 mmHg 78%

21 Aprilie, Miercuri

Timp Temperatura Precipitaţii Vânt Presiune Umiditate
00:00 +8°C° 0 mm 3 m/s 752 mmHg 81%
01:00 +8°C° 0 mm 3 m/s 752 mmHg 83%
02:00 +7°C° 0 mm 3 m/s 753 mmHg 85%
03:00 +7°C° 0 mm 3 m/s 753 mmHg 86%
04:00 +7°C° 0 mm 3 m/s 753 mmHg 87%
05:00 +5°C° 0 mm 3 m/s 753 mmHg 88%
06:00 +7°C° 0 mm 3 m/s 754 mmHg 85%
07:00 +8°C° 0 mm 3 m/s 754 mmHg 82%
08:00 +9°C° 0 mm 3 m/s 754 mmHg 79%
09:00 +12°C° 0 mm 2 m/s 755 mmHg 73%
10:00 +13°C° 0 mm 2 m/s 755 mmHg 67%
11:00 +15°C° 0 mm 2 m/s 755 mmHg 61%
12:00 +16°C° 0.3 mm 2 m/s 755 mmHg 57%
13:00 +16°C° 0.3 mm 3 m/s 755 mmHg 54%
14:00 +17°C° 0.3 mm 3 m/s 755 mmHg 51%
15:00 +17°C° 0.1 mm 3 m/s 755 mmHg 52%
16:00 +17°C° 0.1 mm 3 m/s 755 mmHg 53%
17:00 +17°C° 0.1 mm 2 m/s 755 mmHg 53%
18:00 +15°C° 0.1 mm 2 m/s 755 mmHg 59%
19:00 +14°C° 0.1 mm 2 m/s 756 mmHg 64%
20:00 +13°C° 0.1 mm 2 m/s 756 mmHg 69%
21:00 +12°C° 0 mm 2 m/s 757 mmHg 72%
22:00 +10°C° 0 mm 2 m/s 757 mmHg 75%
23:00 +10°C° 0 mm 3 m/s 757 mmHg 78%

22 Aprilie, Joi

Timp Temperatura Precipitaţii Vânt Presiune Umiditate
00:00 +9°C° 0 mm 2 m/s 757 mmHg 79%
01:00 +9°C° 0 mm 2 m/s 757 mmHg 81%
02:00 +8°C° 0 mm 2 m/s 757 mmHg 83%
03:00 +8°C° 0 mm 2 m/s 757 mmHg 84%
04:00 +7°C° 0 mm 2 m/s 758 mmHg 85%
05:00 +7°C° 0 mm 2 m/s 758 mmHg 86%
06:00 +8°C° 0 mm 2 m/s 758 mmHg 81%
07:00 +10°C° 0 mm 2 m/s 758 mmHg 75%
08:00 +12°C° 0 mm 2 m/s 759 mmHg 70%
09:00 +14°C° 0 mm 2 m/s 759 mmHg 65%
10:00 +15°C° 0 mm 2 m/s 759 mmHg 59%
11:00 +17°C° 0 mm 2 m/s 759 mmHg 53%
12:00 +18°C° 0 mm 2 m/s 758 mmHg 50%
13:00 +19°C° 0 mm 3 m/s 758 mmHg 46%
14:00 +20°C° 0 mm 3 m/s 758 mmHg 42%
15:00 +20°C° 0 mm 3 m/s 757 mmHg 43%
16:00 +20°C° 0 mm 3 m/s 757 mmHg 43%
17:00 +19°C° 0 mm 3 m/s 757 mmHg 44%
18:00 +18°C° 0 mm 2 m/s 757 mmHg 48%
19:00 +16°C° 0 mm 2 m/s 757 mmHg 53%
20:00 +15°C° 0 mm 1 m/s 757 mmHg 58%
21:00 +14°C° 0 mm 1 m/s 757 mmHg 60%
22:00 +14°C° 0 mm 2 m/s 757 mmHg 61%
23:00 +13°C° 0 mm 2 m/s 757 mmHg 63%
Arată mai mult

Formular de consimțământ

Meteoprog și furnizorii noștri de servicii pot stoca și accesa date personale, precum cookies, identificatori de dispozitiv sau alte tehnologii similare pe dispozitivul dumneavoastră și procesa astfel de date pentru a personaliza conținutul și reclamele, dar și pentru a oferi caracteristici de social media și pentru a analiza traficul.

  • Stocarea și/sau accesarea informațiilor pe dispozitivul dumneavoastră

    Cookies, identificatori de dispozitiv sau alte informații pot fi stocate sau accesate pe dispozitiv în scopurile indicate mai sus.

  • Reclame și conținut personalizat, evaluarea reclamelor și a conținutului, informații despre audiențe și dezvoltarea produselor

    Reclamele și conținutul pot fi personalizate pe baza unui profil. Pot fi adăugate date suplimentare pentru a personaliza mai bine reclamele și conținutul. Performanța reclamelor și conținutului poate fi măsurată. Pot fi obținute informații despre utilizatorii care au văzut reclamele și conținutul. Aceste date pot fi utilizate pentru a dezvolta sau îmbunătăți experiența utilizatorilor, sistemele și software-ul.

Dând clic pe ‘Sunt de acord’, permiteți utilizarea cookie-urilor menționate, a identificatorilor de dispozitiv, balizelor web sau altor tehnologii similare. Setările pot fi modificate din browser-ul dispozitivului dumneavoastră.

În anumite scopuri, interesele legitime pot prima asupra consimțământului. Puteți citi mai multe informații în acest sens în Politica privind Confidențialitatea Datelor și Cookie.